P/2021 N2 ( Fuls )

Japanese version
Home page
Updated on April 15, 2023

---------------------------------------------------------------------

* Profile

Discovery Date July 9, 2021
Magnitude 18.3 mag
Discoverer David Carson Fuls (Catalina Sky Survey)

* Pictures

* Orbital Elements

Epoch 2023 Feb. 25.0 TT = JDT 2460000.5
T 2021 Nov. 13.78634 TT                                 Rudenko
q   3.7976212            (2000.0)            P               Q
n   0.05394381     Peri.  177.43134     +0.77452362     -0.61439281
a   6.9370525      Node   221.73682     +0.57624544     +0.78343063
e   0.4525598      Incl.   13.06148     +0.26087228     +0.09358378
P  18.3
>From 1005 observations 2021 June 27-2023 Mar. 19, mean residual 0".4.

* Finding Charts

* Magnitudes Graph

        m1 = -44.5 + 5 log d + 100   log r(t - 30)   [ ,0]  (             - 2021 Nov. 13)
        m1 =   7.0 + 5 log d +  11.0 log r(t - 120)  [0, ]  (2021 Nov. 13 -             )

---------------------------------------------------------------------

The orbital elements are published on M.P.E.C. 2023-F81.
The charts are made with StellaNavigator Ver.10 (AstroArts).
The magnitudes graphs are made with Comet for Windows.

---------------------------------------------------------------------

Copyright(C) Seiichi Yoshida (comet@aerith.net). All rights reserved.